Weather in Medvedevo

Russia / Mari El Republic     56°37′59″N   47°48′11″E
temp.,
°C
wind,
m/s
gust,
m/s
humid.,
%
clouds,
%
prec.,
mm/h
press.,
hPa
HPBL,
m
4 march, thu
thu400:00−5wsw4996100 0.8 1001475
03:00−4wsw41194100 1.3 999570
06:00−3sw41094100 0.1 996514
09:00−2sw51194100 0.3 994708
12:00−1sw71396100 1.5 990980
15:000w61377100 2.4 9881336
18:00−3wnw7158392 0.1 9911203
21:00−6wnw5138996 0.2 995721
5 march, fri
fri500:00−9wnw3109483 0.0 997288
03:00−13wnw359675 0.0 100099
06:00−15wnw23961 0.0 100124
09:00−11w23940 0.0 1003165
12:00−7wsw358843 0.0 1004523
15:00−5w478770 0.1 1005844
18:00−7wsw3892100 0.1 1006300
21:00−11wsw359690 0.1 100893
6 march, sat
sat600:00−12nw239794 0.1 100957
03:00−13nnw239693 0.3 1011102
06:00−17nw2593100 0.1 101399
09:00−16nw249251 0.1 1014236
12:00−13wnw358863 0.0 1015491
15:00−11wnw358681 0.1 1014724
18:00−14w2296100 0.1 101421
21:00−16w229795 0.1 101426
7 march, sun
sun700:00−18w229970 0.0 101320
03:00−19sw229973 0.1 101220
06:00−20ssw2310074 0.0 101125
09:00−16s359687 0.1 1009214
12:00−10s488974 0.0 1006528
15:00−9s6118685 0.0 1004687
18:00−8s61293100 0.4 1001885
21:00−7s61294100 1.5 997880
8 march, mon
mon800:00−6s61294100 1.2 993820
03:00−8wsw61290100 2.4 993776
06:00−10wsw51382100 0.1 994715
09:00−11wsw51092100 0.1 996450
12:00−7sw5890100 0.1 997567
15:00−6sw4787100 0.2 997630
18:00−8ssw1193100 0.1 99621
21:00−10nnw2296100 0.1 99721